Location: Capelle
(50.3413°N, 1.9974°E)
Time: 23:49:40
(UTC+00:00)

Cosmos 1452 Rocket - Pass Details

Date: 12 January 2026
Orbit: 762 x 771 km, 74.1° (Epoch: 18 February)

Event Time Altitude Azimuth Distance (km) Brightness Sun altitude
Rises 19:10:47 0° 209° (SSW) 3,222 7.1 -27.5°
Reaches altitude 10° 19:13:10 10° 212° (SSW) 2,301 6.3 -27.9°
Maximum altitude 19:18:22 70° 296° (WNW) 822 3.7 -28.7°
Enters shadow 19:18:25 69° 300° (WNW) 822 3.7 -28.7°
